This is the latest recevied weather packets stored in our database for station/object KE5QKR. If no packets are shown the sender has not sent any weather packets the latest 10 day(s).
| Time | Temp. | Humidity | Pressure | Rain* | Wind** | Luminosity | Snow |
|---|---|---|---|---|---|---|---|
| 1778180220 | 25.56° C | 84% | 1011.9 hPa | 0 mm | - | 558 W/m² | - |
| 1778179916 | 25° C | 84% | 1012 hPa | 0 mm | - | 718 W/m² | - |
| 1778179614 | 24.44° C | 85% | 1012 hPa | 0 mm | - | 496 W/m² | - |
| 1778179312 | 25° C | 86% | 1012 hPa | 0 mm | - | 407 W/m² | - |
| 1778179008 | 24.44° C | 85% | 1012.1 hPa | 0 mm | - | 483 W/m² | - |
| 1778178705 | 23.89° C | 85% | 1012.1 hPa | 0 mm | - | 393 W/m² | - |
| 1778178402 | 24.44° C | 85% | 1012.2 hPa | 0 mm | - | 419 W/m² | - |
| 1778178097 | 24.44° C | 85% | 1012.2 hPa | 0 mm | - | 393 W/m² | - |
| 1778177794 | 24.44° C | 85% | 1012.4 hPa | 0 mm | - | 350 W/m² | - |
| 1778177491 | 24.44° C | 85% | 1012.5 hPa | 0 mm | - | 328 W/m² | - |
| 1778177187 | 23.89° C | 86% | 1012.1 hPa | 0 mm | - | 460 W/m² | - |
| 1778176884 | 23.33° C | 87% | 1012.4 hPa | 0 mm | - | 524 W/m² | - |
| 1778176580 | 23.33° C | 89% | 1012.5 hPa | 0 mm | - | 560 W/m² | - |
| 1778176277 | 22.78° C | 89% | 1012.5 hPa | 0 mm | - | 735 W/m² | - |
| 1778175974 | 22.78° C | 91% | 1012.5 hPa | 0 mm | - | 410 W/m² | - |
| 1778175672 | 22.78° C | 90% | 1012.5 hPa | 0 mm | - | 685 W/m² | - |
| 1778175369 | 22.22° C | 91% | 1012.5 hPa | 0 mm | - | 418 W/m² | - |
| 1778175066 | 22.22° C | 91% | 1012.6 hPa | 0 mm | - | 397 W/m² | - |
| 1778174762 | 21.67° C | 92% | 1012.9 hPa | 0 mm | - | 342 W/m² | - |
| 1778174460 | 21.67° C | 92% | 1012.8 hPa | 0 mm | - | 341 W/m² | - |
| 1778174154 | 21.67° C | 93% | 1012.8 hPa | 0 mm | - | 306 W/m² | - |
| 1778173852 | 21.67° C | 93% | 1013 hPa | 0 mm | - | 334 W/m² | - |
| 1778173549 | 21.11° C | 94% | 1012.8 hPa | 0 mm | - | 428 W/m² | - |
| 1778173245 | 21.11° C | 94% | 1013 hPa | 0 mm | - | 291 W/m² | - |
| 1778172941 | 20.56° C | 95% | 1012.9 hPa | 0 mm | - | 314 W/m² | - |
* Rain latest hour (hover to see other rain measurements)
** Current wind speed in m/s (hover to see current wind gust speed)